EW5449 Weather Reports


Display with metric or nautical units.
time (UTC)temp
F
wind
direction
speed
MPH
gust
MPH
rain 1hr
in
rain 24hr
in
rain mn
in
humidity
%
barometer
mb
20260831000012 74 84 0.0 0.0 0.00 0.05 0.05 87 1017.3
20260830234511 75 84 0.0 2.0 0.00 0.05 0.05 87 1017.4
20260830233015 76 84 0.0 0.0 0.00 0.05 0.05 86 1017.3
20260830231518 76 84 0.0 2.0 0.00 0.05 0.05 85 1017.2
20260830230009 76 84 0.0 0.0 0.00 0.05 0.05 82 1017.3
20260830224509 76 84 0.0 2.0 0.00 0.05 0.05 84 1017.5
20260830223015 77 84 0.0 2.0 0.00 0.05 0.05 85 1017.7
20260830221507 76 355 0.0 2.0 0.01 0.05 0.05 88 1017.3
20260830220008 76 343 0.0 2.0 0.05 0.05 0.05 86 1017.2
20260830214506 76 196 0.0 2.0 0.05 0.05 0.05 87 1016.8
20260830213006 77 196 0.0 2.0 0.05 0.05 0.05 82 1017.3
20260830211513 81 223 0.0 11.0 0.04 0.04 0.04 73 1017.6
20260830210007 86 76 0.0 2.0 0.00 0.00 0.00 67 1016.8
20260830204504 87 86 0.0 2.0 0.00 0.00 0.00 65 1016.8
20260830203003 86 57 0.0 2.0 0.00 0.00 0.00 66 1016.9
20260830201601 85 87 0.0 2.0 0.00 0.00 0.00 67 1016.9
20260830194558 86 343 0.0 4.0 0.00 0.00 0.00 62 1017.3
20260830193057 87 107 1.0 3.0 0.00 0.00 0.00 64 1017.4
20260830191558 85 110 0.0 2.0 0.00 0.00 0.00 66 1017.5
20260830190052 83 108 0.0 2.0 0.00 0.00 0.00 69 1017.7
20260830184551 84 107 0.0 2.0 0.00 0.00 0.00 71 1018.0
20260830183150 85 108 0.0 2.0 0.00 0.00 0.00 68 1018.3
20260830181554 86 109 0.0 2.0 0.00 0.00 0.00 63 1018.3
20260830180104 87 108 0.0 3.0 0.00 0.00 0.00 63 1018.2
20260830174552 89 108 0.0 4.0 0.00 0.00 0.00 60 1018.4
20260830173059 89 186 0.0 2.0 0.00 0.00 0.00 58 1018.7
20260830171550 87 115 0.0 4.0 0.00 0.00 0.00 61 1019.2
20260830170037 87 215 0.0 2.0 0.00 0.00 0.00 60 1019.4
20260830164534 88 114 0.0 4.0 0.00 0.00 0.00 60 1019.5
20260830163031 87 164 0.0 2.0 0.00 0.00 0.00 64 1019.6
20260830161526 86 178 0.0 2.0 0.00 0.00 0.00 64 1019.8
20260830160022 84 190 0.0 3.0 0.00 0.00 0.00 67 1020.1
20260830154520 83 129 0.0 3.0 0.00 0.00 0.00 68 1020.2
20260830153016 81 187 0.0 4.0 0.00 0.00 0.00 70 1020.3
20260830151518 80 163 0.0 4.0 0.00 0.00 0.00 71 1020.2
20260830150008 79 190 0.0 3.0 0.00 0.00 0.00 74 1020.2
20260830144510 79 219 0.0 4.0 0.00 0.00 0.00 74 1020.2
20260830143006 79 193 1.0 6.0 0.00 0.00 0.00 73 1020.3
20260830141502 78 195 0.0 2.0 0.00 0.00 0.00 75 1020.3
20260830140108 77 223 0.0 3.0 0.00 0.00 0.00 77 1020.3
20260830134604 76 183 0.0 2.0 0.00 0.00 0.00 78 1020.3
20260830133055 75 204 1.0 3.0 0.00 0.00 0.00 81 1020.5
20260830131611 73 113 0.0 3.0 0.00 0.00 0.00 83 1020.8
20260830130047 72 169 0.0 2.0 0.00 0.00 0.00 85 1021.0
20260830124546 71 188 0.0 2.0 0.00 0.00 0.00 85 1021.1
20260830123051 70 182 0.0 2.0 0.00 0.00 0.00 87 1021.1
20260830121543 69 182 0.0 2.0 0.00 0.00 0.00 88 1021.1
20260830120042 68 175 0.0 2.0 0.00 0.00 0.00 90 1021.1
20260830114549 67 163 0.0 2.0 0.00 0.00 0.00 92 1021.1
20260830113041 66 158 0.0 1.0 0.00 0.00 0.00 92 1021.0
20260830111540 65 158 0.0 0.0 0.00 0.00 0.00 91 1021.0
20260830110059 65 158 0.0 0.0 0.00 0.00 0.00 90 1020.9
20260830104539 65 158 0.0 0.0 0.00 0.00 0.00 90 1020.9
20260830103038 66 158 0.0 0.0 0.00 0.00 0.00 90 1020.9
20260830101538 66 158 0.0 0.0 0.00 0.00 0.00 90 1020.8
20260830100037 66 158 0.0 0.0 0.00 0.00 0.00 90 1020.9
20260830094534 66 158 0.0 0.0 0.00 0.00 0.00 89 1021.0
20260830093044 66 158 0.0 0.0 0.00 0.00 0.00 88 1020.9
20260830091532 67 158 0.0 0.0 0.00 0.00 0.00 88 1021.0
20260830090031 67 158 0.0 0.0 0.00 0.00 0.00 87 1021.0
20260830084529 67 158 0.0 0.0 0.00 0.00 0.00 87 1021.1
20260830083028 68 158 0.0 0.0 0.00 0.00 0.00 86 1020.9
20260830081527 68 158 0.0 0.0 0.00 0.00 0.00 86 1020.9
20260830080023 68 158 0.0 2.0 0.00 0.00 0.00 86 1021.0
20260830074538 69 158 0.0 2.0 0.00 0.00 0.00 85 1020.9
20260830073019 69 158 0.0 1.0 0.00 0.00 0.00 84 1021.0
20260830071517 69 155 0.0 2.0 0.00 0.00 0.00 84 1021.0
20260830070016 70 154 0.0 2.0 0.00 0.00 0.00 83 1021.1
20260830064516 70 154 0.0 0.0 0.00 0.00 0.00 83 1021.1
20260830063015 70 154 0.0 1.0 0.00 0.00 0.00 84 1021.4
20260830061522 70 154 0.0 2.0 0.00 0.00 0.00 83 1021.6
20260830060012 70 143 0.0 2.0 0.00 0.00 0.00 82 1021.7
20260830054521 70 125 0.0 2.0 0.00 0.00 0.00 83 1021.7
20260830053011 69 121 0.0 1.0 0.00 0.00 0.00 83 1021.8
20260830051525 70 121 0.0 0.0 0.00 0.00 0.00 82 1021.8
20260830050010 70 121 0.0 0.0 0.00 0.00 0.00 81 1021.7
20260830044506 70 121 0.0 0.0 0.00 0.00 0.00 81 1021.7
20260830043004 70 121 0.0 0.0 0.00 0.00 0.00 80 1021.6
20260830041505 71 121 0.0 0.0 0.00 0.00 0.00 80 1021.4
20260830034559 71 121 0.0 0.0 0.00 0.00 0.00 79 1021.5
20260830033102 71 121 0.0 0.0 0.00 0.00 0.00 78 1021.4
20260830031558 72 121 0.0 2.0 0.00 0.00 0.00 78 1021.4
20260830030059 72 171 0.0 2.0 0.00 0.00 0.00 78 1021.5
20260830024600 72 259 0.0 2.0 0.00 0.00 0.00 78 1021.5
20260830023116 71 259 0.0 1.0 0.00 0.00 0.00 78 1021.6
20260830021603 71 259 0.0 0.0 0.00 0.00 0.00 79 1021.6
20260830020108 71 259 0.0 0.0 0.00 0.00 0.00 77 1021.5
20260830014559 72 259 0.0 0.0 0.00 0.00 0.00 77 1021.3
20260830013104 72 259 0.0 0.0 0.00 0.00 0.00 76 1021.3
20260830011606 73 259 0.0 0.0 0.00 0.00 0.00 75 1021.3
20260830010132 73 259 0.0 0.0 0.00 0.00 0.00 74 1021.1
20260830004553 74 259 0.0 0.0 0.00 0.00 0.00 71 1020.9
20260830003053 75 259 0.0 0.0 0.00 0.00 0.00 71 1020.5
20260830001553 75 259 0.0 0.0 0.00 0.00 0.00 69 1020.8